This demonstration page uses our WeatherBlox Daily Observations layout. Learn more.

Left ArrowRight Arrow

Hourly Observations for October 13, 2021

Temp ( °F °C ) Dew Point ( °F °C ) Humidity (%) Winds ( mph kmh ) Pressure ( in mb ) Visibility ( mi km ) Precip ( " mm )
12:53 am 00:53 Clear with Mist and Fog 62 16.7 61 16.1 96 96 Calm 30.05 1018 6 10 0.00 0.00
1:47 am 01:47 Clear with Mist and Fog 63 17 61 16 94 94 Calm 30.06 1018 2 3 0.00 0.00
1:53 am 01:53 Mostly Clear with Mist and Fog 62 16.7 61 16.1 96 96 Calm 30.05 1018 2 3 0.00 0.00
1:56 am 01:56 Partly Cloudy with Mist and Fog 62 16.7 61 16.1 96 96 Calm 30.06 1018 3 5 0.00 0.00
2:53 am 02:53 Mostly Cloudy with Mist and Fog 61 16.1 60 15.6 97 97 Calm 30.06 1018 3 4 0.00 0.00
3:53 am 03:53 Mostly Cloudy with Mist and Fog 60 15.6 59 15 96 96 Calm 30.05 1018 3 4 0.00 0.00
3:55 am 03:55 Mostly Cloudy 60 15.6 59 15 96 96 Calm 30.06 1018 7 11 0.00 0.00
4:53 am 04:53 Mostly Cloudy 60 15.6 60 15.6 100 100 Calm 30.05 1018 7 11 0.00 0.00
5:27 am 05:27 Clear 60 15.6 59 15 96 96 Calm 30.06 1018 9 14 0.00 0.00
5:53 am 05:53 Clear 59 15 59 15 100 100 Calm 30.05 1018 9 14 0.00 0.00
6:42 am 06:42 Cloudy with Mist and Fog 61 16.1 60 15.6 97 97 Calm 30.07 1018 2 3 0.00 0.00
6:53 am 06:53 Cloudy with Mist and Fog 61 16.1 61 16.1 100 100 Calm 30.06 1018 2 3 0.00 0.00
6:55 am 06:55 Cloudy with Mist and Fog 61 16.1 61 16.1 100 100 Calm 30.07 1018 1 1 0.00 0.00
7:03 am 07:03 Mostly Cloudy with Fog 60 15.6 60 15.6 100 100 Calm 30.07 1018 1 1 0.00 0.00
7:11 am 07:11 Mostly Cloudy with Fog 60 15.6 60 15.6 100 100 Calm 30.07 1018 0 0 0.00 0.00
7:53 am 07:53 Mostly Cloudy with Fog 61 16.1 60 15.6 97 97 Calm 30.08 1019 0 0 0.00 0.00
8:09 am 08:09 Mostly Cloudy with Light Rain 61 16.1 60 15.6 97 97 Calm 30.09 1019 N/A 0.00 0.00
8:27 am 08:27 Mostly Cloudy with Light Rain 61 16.1 61 16.1 100 100 Calm 30.09 1019 0 0 0.01 0.25
8:53 am 08:53 Mostly Cloudy with Light Rain 61 16.1 61 16.1 100 100 Calm 30.09 1019 0 0 0.01 0.25
9:00 am 09:00 Cloudy with Light Rain 61 16.1 61 16.1 100 100 Calm 30.10 1019 1 1 0.00 0.00
9:11 am 09:11 Cloudy with Light Rain 62 16.7 62 16.7 100 100 Calm 30.10 1019 0 0 0.00 0.00
9:27 am 09:27 Cloudy with Light Rain 62 16.7 62 16.7 100 100 Calm 30.11 1020 1 2 0.00 0.00
9:53 am 09:53 Cloudy with Mist and Fog 64 17.8 64 17.8 100 100 Calm 30.10 1019 3 5 0.00 0.00
10:08 am 10:08 Partly Cloudy 65 18.3 65 18.3 100 100 Calm 30.10 1019 7 11 0.00 0.00
10:53 am 10:53 Sunny 73 22.8 67 19.4 81 81 Calm 30.09 1019 10 16 0.00 0.00
11:53 am 11:53 Mostly Sunny 77 25 66 18.9 69 69 ENE 3 6 30.08 1019 10 16 0.00 0.00
12:53 pm 12:53 Partly Cloudy 79 26.1 66 18.9 65 65 Calm 30.06 1018 10 16 0.00 0.00
1:53 pm 13:53 Partly Cloudy 81 27.2 65 18.3 58 58 undefined N/A 30.03 1017 10 16 0.00 0.00
2:53 pm 14:53 Sunny 79 26.1 63 17.2 58 58 Calm 30.01 1016 10 16 0.00 0.00
3:53 pm 15:53 Mostly Cloudy 82 27.8 64 17.8 55 55 NW 5 7 30.01 1016 10 16 0.00 0.00
4:53 pm 16:53 Sunny 81 27.2 61 16.1 51 51 SW 3 6 29.99 1016 10 16 0.00 0.00
5:53 pm 17:53 Mostly Sunny 81 27.2 62 16.7 53 53 S 5 7 29.98 1015 10 16 0.00 0.00
6:53 pm 18:53 Partly Cloudy 78 25.6 64 17.8 62 62 Calm 30.00 1016 10 16 0.00 0.00
7:53 pm 19:53 Mostly Cloudy 75 23.9 67 19.4 76 76 Calm 30.01 1016 10 16 0.00 0.00
8:53 pm 20:53 Partly Cloudy 71 21.7 67 19.4 87 87 Calm 30.02 1017 10 16 0.00 0.00
9:53 pm 21:53 Clear 69 20.6 66 18.9 90 90 Calm 30.02 1017 10 16 0.00 0.00
10:53 pm 22:53 Clear 69 20.6 66 18.9 90 90 Calm 30.02 1017 10 16 0.00 0.00
11:53 pm 23:53 Clear 68 20 66 18.9 93 93 Calm 30.03 1017 10 16 0.00 0.00

Powered by AerisWeather